Philip, SD

5:31 PM MST on November 18, 2017 (GMT -0700)
Philip

Weather History for KPHP - May, 2014

Change the Weather History Date:

Thursday, May 22, 2014

  Actual Average Record
Temperature  
Mean Temperature 64 °F 59 °F  
Max Temperature 81 °F 72 °F 98 °F (2012)
Min Temperature 47 °F 46 °F 23 °F (1963)
Degree Days  
Heating Degree Days 1 7  
Month to date heating degree days 305 220  
Since 1 July heating degree days 7467 7087  
Cooling Degree Days 0 1  
Month to date cooling degree days 1 17  
Year to date cooling degree days 1 20  
Growing Degree Days 14 (Base 50)    
Moisture  
Dew Point 53 °F    
Average Humidity 66    
Maximum Humidity 93    
Minimum Humidity 39    
Precipitation  
Precipitation 0.00 in 0.10 in 1.88 in (2008)
Month to date precipitation 1.90 2.15  
Year to date precipitation 4.34 6.04  
Sea Level Pressure  
Sea Level Pressure 30.06 in    
Wind  
Wind Speed 9 mph (SE)    
Max Wind Speed 21 mph    
Max Gust Speed 28 mph    
Visibility 10 miles    
Events      
T = Trace of Precipitation, MM = Missing Value Source: NWS Daily Summary

Daily Weather History Graph

Daily Weather History Graph

Search for Another Location

Airport or City:

Trip Planner

Search our weather history database for the weather conditions in past years. The results will help you decide how hot, cold, wet, or windy it might be!

Date:

Astronomy

May. 22, 2014 Rise Set
Actual Time 5:13 AM MDT 8:13 PM MDT
Civil Twilight 4:39 AM MDT 8:47 PM MDT
Nautical Twilight 3:55 AM MDT 9:31 PM MDT
Astronomical Twilight 3:03 AM MDT 10:24 PM MDT
Moon 1:47 AM MDT (5/22) 1:50 PM MDT (5/22)
Length of Visible Light 16h 08m
Length of Day
15h 00m
Last Quarter, 37% of the Moon is Illuminated
May 22
Last Quarter
May 28
New
Jun 5
First Quarter
Jun 12
Full
Jun 19
Last Quarter

Hourly Weather History & Observations

Time (MDT) Temp. Heat Index Dew Point Humidity Pressure Visibility Wind Dir Wind Speed Gust Speed Precip Events Conditions
12:55 AM 53.1 °F - 48.0 °F 83% 30.10 in 10.0 mi East 6.9 mph - N/A   Mostly Cloudy
1:55 AM 54.0 °F - 48.9 °F 83% 30.10 in 10.0 mi East 5.8 mph - N/A   Overcast
2:55 AM 53.1 °F - 48.9 °F 86% 30.09 in 10.0 mi East 6.9 mph - N/A   Overcast
3:55 AM 53.1 °F - 46.9 °F 80% 30.09 in 10.0 mi ESE 6.9 mph - N/A   Clear
4:55 AM 48.0 °F - 45.0 °F 89% 30.12 in 10.0 mi East 4.6 mph - N/A   Clear
5:55 AM 48.0 °F - 46.0 °F 93% 30.12 in 10.0 mi East 5.8 mph - N/A   Clear
6:55 AM 52.0 °F - 48.9 °F 89% 30.12 in 10.0 mi East 6.9 mph - N/A   Clear
7:55 AM 57.0 °F - 51.1 °F 81% 30.12 in 10.0 mi East 11.5 mph - N/A   Clear
8:55 AM 64.0 °F - 52.0 °F 65% 30.11 in 10.0 mi SE 10.4 mph - N/A   Clear
9:55 AM 68.0 °F - 53.1 °F 59% 30.10 in 10.0 mi SE 12.7 mph 20.7 mph N/A   Clear
10:55 AM 71.1 °F - 55.0 °F 57% 30.09 in 10.0 mi ESE 13.8 mph - N/A   Clear
11:55 AM 75.0 °F - 55.0 °F 50% 30.07 in 10.0 mi SSE 16.1 mph - N/A   Clear
12:55 PM 72.0 °F - 55.9 °F 57% 30.06 in 10.0 mi SSE 12.7 mph - N/A   Clear
1:55 PM 79.0 °F - 55.0 °F 44% 30.04 in 10.0 mi SSE 17.3 mph 25.3 mph N/A   Clear
3:55 PM 80.1 °F 80.0 °F 54.0 °F 40% 30.01 in 10.0 mi South 15.0 mph - N/A   Clear
4:55 PM 78.1 °F - 55.9 °F 46% 30.01 in 10.0 mi South 10.4 mph - N/A   Clear
5:55 PM 77.0 °F - 59.0 °F 54% 30.00 in 10.0 mi SSE 10.4 mph - N/A   Clear
6:55 PM 73.0 °F - 60.1 °F 64% 30.00 in 10.0 mi SE 6.9 mph - N/A   Clear
7:55 PM 69.1 °F - 59.0 °F 70% 30.01 in 10.0 mi SSE 8.1 mph - N/A   Clear
8:55 PM 66.0 °F - 57.0 °F 73% 30.01 in 10.0 mi SSE 9.2 mph - N/A   Clear
9:55 PM 64.0 °F - 55.9 °F 75% 30.03 in 10.0 mi SSE 10.4 mph - N/A   Clear
10:55 PM 62.1 °F - 55.0 °F 78% 30.04 in 10.0 mi Calm Calm - N/A   Clear
11:55 PM 61.0 °F - 54.0 °F 78% 30.03 in 10.0 mi Calm Calm - N/A   Clear